Chicopee, MA

7:49 AM EDT on April 24, 2018 (GMT -0400)
Westover Air Reserve Base / Metropolitan Airport

Weather History for KCEF - December, 2012

Change the Weather History Date:

Sunday, December 23, 2012

  Actual Average Record
Temperature  
Mean Temperature 34 °F -  
Max Temperature 38 °F 34 °F 58 °F (2013)
Min Temperature 29 °F 19 °F 1 °F (2008)
Degree Days  
Heating Degree Days 32    
Moisture  
Dew Point 20 °F    
Average Humidity 57    
Maximum Humidity 69    
Minimum Humidity 50    
Precipitation  
Precipitation 0.01 in - - ()
Sea Level Pressure  
Sea Level Pressure 29.83 in    
Wind  
Wind Speed 15 mph (WSW)    
Max Wind Speed 29 mph    
Max Gust Speed 41 mph    
Visibility 10 miles    
Events      
Averages and records for this station are not official NWS values.
T = Trace of Precipitation, MM = Missing Value Source: NWS Daily Summary

Daily Weather History Graph

Daily Weather History Graph

Search for Another Location

Airport or City:

Astronomy

Dec. 23, 2012 Rise Set
Actual Time 7:16 AM EST 4:22 PM EST
Civil Twilight 6:44 AM EST 4:54 PM EST
Nautical Twilight 6:09 AM EST 5:29 PM EST
Astronomical Twilight 5:35 AM EST 6:03 PM EST
Moon 1:13 PM EST (12/23) 2:54 AM EST (12/23)
Length of Visible Light 10h 09m
Length of Day
9h 05m
Waxing Gibbous, 81% of the Moon is Illuminated
Dec 23
Waxing Gibbous
Dec 28
Full
Jan 4
Last Quarter
Jan 11
New
Jan 18
First Quarter

Hourly Weather History & Observations

Time (EST) Temp. Windchill Dew Point Humidity Pressure Visibility Wind Dir Wind Speed Gust Speed Precip Events Conditions
12:55 AM 32.2 °F 18.1 °F 18.9 °F 58% 29.69 in 10.0 mi WNW 28.8 mph 41.4 mph 0.01 in   Scattered Clouds
1:55 AM 32.2 °F 21.1 °F 18.5 °F 57% 29.73 in 10.0 mi WNW 17.3 mph 34.5 mph N/A   Clear
2:55 AM 31.8 °F 19.9 °F 16.7 °F 54% 29.75 in 10.0 mi WNW 19.6 mph 28.8 mph N/A   Clear
3:55 AM 31.5 °F 17.9 °F 16.7 °F 54% 29.78 in 10.0 mi WNW 25.3 mph 35.7 mph N/A   Clear
4:55 AM 31.5 °F 20.5 °F 16.5 °F 54% 29.80 in 10.0 mi West 16.1 mph 27.6 mph N/A   Clear
5:55 AM 30.7 °F 20.4 °F 16.9 °F 56% 29.83 in 10.0 mi WNW 13.8 mph 21.9 mph N/A   Clear
6:55 AM 29.5 °F 21.8 °F 17.1 °F 60% 29.85 in 10.0 mi WNW 8.1 mph - N/A   Clear
7:55 AM 30.4 °F 22.9 °F 17.1 °F 58% 29.86 in 10.0 mi WNW 8.1 mph - N/A   Clear
8:55 AM 32.7 °F 26.4 °F 17.6 °F 54% 29.88 in 10.0 mi West 6.9 mph - N/A   Partly Cloudy
9:55 AM 34.5 °F 27.9 °F 18.1 °F 51% 29.89 in 10.0 mi West 8.1 mph - N/A   Overcast
10:55 AM 34.5 °F 29.4 °F 19.4 °F 54% 29.88 in 10.0 mi WSW 5.8 mph - N/A   Overcast
11:55 AM 35.4 °F 29.7 °F 21.7 °F 58% 29.85 in 10.0 mi SW 6.9 mph - N/A   Overcast
12:55 PM 36.7 °F 29.9 °F 23.0 °F 58% 29.83 in 10.0 mi SW 9.2 mph - N/A   Overcast
1:55 PM 38.3 °F 31.9 °F 22.3 °F 53% 29.80 in 10.0 mi WSW 9.2 mph - N/A   Overcast
2:55 PM 38.7 °F 32.4 °F 21.4 °F 50% 29.81 in 10.0 mi West 9.2 mph - N/A   Overcast
3:55 PM 34.9 °F 29.0 °F 21.4 °F 58% 29.81 in 10.0 mi WSW 6.9 mph - N/A   Partly Cloudy
4:55 PM 36.7 °F 30.5 °F 22.8 °F 57% 29.81 in 10.0 mi SW 8.1 mph - N/A   Overcast
5:55 PM 33.4 °F 27.3 °F 22.3 °F 64% 29.83 in 10.0 mi SSW 6.9 mph - N/A   Mostly Cloudy
7:55 PM 31.3 °F 23.9 °F 22.1 °F 69% 29.85 in 10.0 mi SSW 8.1 mph - N/A   Scattered Clouds
8:55 PM 32.4 °F 25.3 °F 22.6 °F 67% 29.86 in 10.0 mi South 8.1 mph - N/A   Overcast
9:55 PM 34.0 °F 26.6 °F 21.6 °F 60% 29.88 in 10.0 mi SSW 9.2 mph - N/A   Overcast
10:55 PM 32.9 °F 24.1 °F 19.2 °F 57% 29.88 in 10.0 mi South 11.5 mph - N/A   Scattered Clouds
11:55 PM 31.1 °F 23.1 °F 18.7 °F 60% 29.88 in 10.0 mi South 9.2 mph - N/A   Clear